Weather History for K2W6 - December, 2013

Change the Weather History Date:

Wednesday, December 18, 2013

  Actual Average (KNHK) Record (KNHK)
Temperature  
Mean Temperature 34 °F -  
Max Temperature 41 °F 44 °F 72 °F (1984)
Min Temperature 28 °F 28 °F 15 °F (1989)
Degree Days  
Heating Degree Days 30    
Moisture  
Dew Point 28 °F    
Average Humidity 81    
Maximum Humidity 100    
Minimum Humidity 49    
Precipitation  
Precipitation 0.00 in - - ()
Sea Level Pressure  
Sea Level Pressure 30.17 in    
Wind  
Wind Speed 2 mph (West)    
Max Wind Speed 14 mph    
Max Gust Speed 18 mph    
Visibility 8 miles    
Events      
Averages and records for this station are not official NWS values.
T = Trace of Precipitation, MM = Missing Value Source: NWS Daily Summary

Daily Weather History Graph

Daily Weather History Graph

Search for Another Location

Airport or City:

Trip Planner

Search our weather history database for the weather conditions in past years. The results will help you decide how hot, cold, wet, or windy it might be!

Date:

Astronomy

Dec. 18, 2013 Rise Set
Actual Time 7:17 AM EST 4:48 PM EST
Civil Twilight 6:48 AM EST 5:17 PM EST
Nautical Twilight 6:15 AM EST 5:50 PM EST
Astronomical Twilight 5:42 AM EST 6:23 PM EST
Moon 6:16 PM EST (12/18) 7:57 AM EST (12/18)
Length of Visible Light 10h 29m
Length of Day
9h 30m
Full, 98% of the Moon is Illuminated
Dec 18
Full
Dec 25
Last Quarter
Jan 1
New
Jan 7
First Quarter
Jan 15
Full

Hourly Weather History & Observations

Time (EST) Temp. Windchill Dew Point Humidity Pressure Visibility Wind Dir Wind Speed Gust Speed Precip Events Conditions
12:04 AM 32.0 °F - 32.0 °F 100% 29.99 in 1.2 mi Calm Calm - N/A   Overcast
12:24 AM 32.0 °F - 32.0 °F 100% 29.99 in 1.2 mi Calm Calm - N/A   Overcast
12:44 AM 32.0 °F - 32.0 °F 100% 29.99 in 2.0 mi Calm Calm - N/A   Overcast
1:04 AM 32.0 °F - 32.0 °F 100% 30.00 in 2.0 mi Calm Calm - N/A   Overcast
1:24 AM 32.0 °F 28.7 °F 32.0 °F 100% 30.01 in 2.5 mi WNW 3.5 mph - N/A   Overcast
1:44 AM 32.0 °F - 32.0 °F 100% 30.01 in 3.0 mi Calm Calm - N/A   Overcast
2:04 AM 32.0 °F 26.4 °F 32.0 °F 100% 30.03 in 3.0 mi West 5.8 mph - N/A   Overcast
2:24 AM 32.0 °F 28.7 °F 32.0 °F 100% 30.03 in 4.0 mi WNW 3.5 mph - N/A   Overcast
2:44 AM 32.0 °F 27.5 °F 32.0 °F 100% 30.04 in 3.0 mi WNW 4.6 mph - N/A   Overcast
3:04 AM 32.0 °F - 32.0 °F 100% 30.05 in 4.0 mi Calm Calm - N/A   Overcast
3:24 AM 32.0 °F - 32.0 °F 100% 30.05 in 4.0 mi Calm Calm - N/A   Mostly Cloudy
3:44 AM 32.0 °F - 32.0 °F 100% 30.06 in 3.0 mi Calm Calm - N/A   Mostly Cloudy
4:04 AM 32.0 °F - 30.2 °F 93% 30.06 in 2.0 mi Calm Calm - N/A   Scattered Clouds
4:24 AM 32.0 °F - 30.2 °F 93% 30.07 in 2.0 mi Calm Calm - N/A   Clear
4:44 AM 32.0 °F - 30.2 °F 93% 30.08 in 3.0 mi Calm Calm - N/A   Clear
5:04 AM 30.2 °F - 30.2 °F 100% 30.09 in 2.5 mi Calm Calm - N/A   Clear
5:24 AM 32.0 °F - 30.2 °F 93% 30.10 in 0.8 mi Calm Calm - N/A   Overcast
5:45 AM 32.0 °F - 30.2 °F 93% 30.11 in 0.5 mi Calm Calm - N/A   Overcast
6:05 AM 32.0 °F - 30.2 °F 93% 30.12 in 2.5 mi Calm Calm - N/A   Overcast
6:25 AM 32.0 °F - 30.2 °F 93% 30.13 in 4.0 mi Calm Calm - N/A   Mostly Cloudy
6:45 AM 32.0 °F - 30.2 °F 93% 30.14 in 5.0 mi Calm Calm - N/A   Clear
7:05 AM 30.2 °F - 28.4 °F 93% 30.15 in 7.0 mi Calm Calm - N/A   Clear
7:25 AM 32.0 °F - 28.4 °F 87% 30.16 in 7.0 mi Calm Calm - N/A   Clear
7:45 AM 32.0 °F - 28.4 °F 87% 30.17 in 10.0 mi Calm Calm - N/A   Clear
8:05 AM 32.0 °F - 28.4 °F 87% 30.18 in 10.0 mi Calm Calm - N/A   Clear
8:25 AM 32.0 °F 27.5 °F 28.4 °F 87% 30.19 in 10.0 mi West 4.6 mph - N/A   Clear
8:45 AM 32.0 °F 26.4 °F 28.4 °F 87% 30.20 in 10.0 mi West 5.8 mph - N/A   Clear
9:05 AM 32.0 °F 27.5 °F 26.6 °F 80% 30.19 in 10.0 mi WNW 4.6 mph - N/A   Clear
9:25 AM 33.8 °F 30.8 °F 26.6 °F 75% 30.20 in 10.0 mi NW 3.5 mph - N/A   Clear
9:45 AM 33.8 °F 29.6 °F 26.6 °F 75% 30.20 in 10.0 mi WNW 4.6 mph - N/A   Clear
10:05 AM 33.8 °F 27.7 °F 26.6 °F 75% 30.21 in 10.0 mi WNW 6.9 mph - N/A   Clear
10:25 AM 33.8 °F 29.6 °F 26.6 °F 75% 30.21 in 10.0 mi West 4.6 mph - N/A   Clear
10:45 AM 35.6 °F 31.7 °F 28.4 °F 75% 30.21 in 10.0 mi West 4.6 mph - N/A   Clear
11:05 AM 35.6 °F 29.9 °F 26.6 °F 70% 30.21 in 10.0 mi West 6.9 mph - N/A   Clear
11:25 AM 35.6 °F 29.2 °F 26.6 °F 70% 30.21 in 10.0 mi West 8.1 mph - N/A   Clear
11:45 AM 37.4 °F 32.8 °F 26.6 °F 65% 30.20 in 10.0 mi WNW 5.8 mph - N/A   Clear
12:05 PM 37.4 °F 29.8 °F 23.0 °F 56% 30.20 in 10.0 mi West 11.5 mph - N/A   Clear
12:25 PM 37.4 °F 32.8 °F 23.0 °F 56% 30.19 in 10.0 mi WNW 5.8 mph - N/A   Clear
12:45 PM 37.4 °F 32.1 °F 23.0 °F 56% 30.19 in 10.0 mi West 6.9 mph - N/A   Clear
1:05 PM 39.2 °F 31.6 °F 23.0 °F 52% 30.18 in 10.0 mi WNW 12.7 mph - N/A   Scattered Clouds
1:25 PM 41.0 °F 33.5 °F 23.0 °F 49% 30.19 in 10.0 mi WSW 13.8 mph 18.4 mph N/A   Scattered Clouds
1:45 PM 39.2 °F 32.5 °F 23.0 °F 52% 30.19 in 10.0 mi West 10.4 mph 17.3 mph N/A   Scattered Clouds
2:05 PM 39.2 °F 34.2 °F 23.0 °F 52% 30.19 in 10.0 mi West 6.9 mph - N/A   Clear
2:26 PM 41.0 °F 36.4 °F 23.0 °F 49% 30.19 in 10.0 mi West 6.9 mph - N/A   Scattered Clouds
2:46 PM 41.0 °F 35.8 °F 23.0 °F 49% 30.19 in 10.0 mi West 8.1 mph - N/A   Scattered Clouds
3:06 PM 41.0 °F 35.8 °F 24.8 °F 53% 30.19 in 10.0 mi WSW 8.1 mph - N/A   Scattered Clouds
3:26 PM 41.0 °F 36.4 °F 23.0 °F 49% 30.19 in 10.0 mi West 6.9 mph - N/A   Clear
3:46 PM 41.0 °F 36.4 °F 23.0 °F 49% 30.20 in 10.0 mi West 6.9 mph - N/A   Clear
4:06 PM 39.2 °F 34.2 °F 24.8 °F 56% 30.20 in 10.0 mi West 6.9 mph - N/A   Clear
4:26 PM 37.4 °F 34.9 °F 24.8 °F 60% 30.21 in 10.0 mi West 3.5 mph - N/A   Clear
4:46 PM 35.6 °F - 28.4 °F 75% 30.21 in 10.0 mi Calm Calm - N/A   Clear
5:06 PM 33.8 °F - 28.4 °F 81% 30.21 in 10.0 mi Calm Calm - N/A   Clear
5:26 PM 33.8 °F - 28.4 °F 81% 30.21 in 10.0 mi Calm Calm - N/A   Clear
5:46 PM 32.0 °F - 26.6 °F 80% 30.22 in 10.0 mi Calm Calm - N/A   Clear
6:06 PM 32.0 °F - 28.4 °F 87% 30.22 in 10.0 mi Calm Calm - N/A   Clear
6:26 PM 32.0 °F - 28.4 °F 87% 30.23 in 10.0 mi Calm Calm - N/A   Clear
6:46 PM 32.0 °F - 28.4 °F 87% 30.23 in 10.0 mi Calm Calm - N/A   Clear
7:06 PM 30.2 °F - 26.6 °F 86% 30.24 in 10.0 mi Calm Calm - N/A   Clear
7:26 PM 30.2 °F - 26.6 °F 86% 30.24 in 10.0 mi Calm Calm - N/A   Clear
7:46 PM 32.0 °F - 28.4 °F 87% 30.24 in 10.0 mi Calm Calm - N/A   Clear
8:06 PM 30.2 °F - 26.6 °F 86% 30.24 in 10.0 mi Calm Calm - N/A   Clear
8:26 PM 30.2 °F - 26.6 °F 86% 30.24 in 10.0 mi Calm Calm - N/A   Clear
8:46 PM 30.2 °F - 26.6 °F 86% 30.24 in 10.0 mi Calm Calm - N/A   Clear
9:06 PM 30.2 °F - 26.6 °F 86% 30.24 in 10.0 mi Calm Calm - N/A   Clear
9:26 PM 30.2 °F - 26.6 °F 86% 30.24 in 10.0 mi Calm Calm - N/A   Clear
9:46 PM 30.2 °F - 26.6 °F 86% 30.24 in 10.0 mi Calm Calm - N/A   Clear
10:06 PM 30.2 °F - 26.6 °F 86% 30.24 in 10.0 mi Calm Calm - N/A   Clear
10:26 PM 30.2 °F - 26.6 °F 86% 30.24 in 10.0 mi Calm Calm - N/A   Clear
10:46 PM 30.2 °F - 26.6 °F 86% 30.25 in 7.0 mi Calm Calm - N/A   Clear
11:07 PM 30.2 °F - 26.6 °F 86% 30.25 in 10.0 mi Calm Calm - N/A   Clear
11:27 PM 28.4 °F - 26.6 °F 93% 30.25 in 10.0 mi Calm Calm - N/A   Clear
11:47 PM 28.4 °F - 26.6 °F 93% 30.24 in 10.0 mi Calm Calm - N/A   Clear